N9LYA-3 Weather Reports


time (UTC)temp
C
wind
direction
speed
KPH
gust
KPH
rain 1hr
cm
rain 24hr
cm
rain mn
cm
humidity
%
barometer
mb
20260508014743 10 236 0.0 0.0 0.00 0.00 0.00 80 1017.7
20260508013543 10 236 0.0 0.0 0.00 0.00 0.00 80 1017.7
20260508013243 10 236 0.0 0.0 0.00 0.00 0.00 78 1017.7
20260508012643 10 236 0.0 0.0 0.00 0.00 0.00 78 1017.7
20260508012343 10 236 0.0 0.0 0.00 0.00 0.00 78 1017.7
20260508012043 10 236 0.0 0.0 0.00 0.00 0.00 78 1017.7
20260508011743 11 236 0.0 0.0 0.00 0.00 0.00 78 1017.6
20260508011443 11 236 0.0 0.0 0.00 0.00 0.00 78 1017.6
20260508010845 11 236 0.0 0.0 0.00 0.00 0.00 78 1017.6
20260508010243 12 236 0.0 0.0 0.00 0.00 0.00 78 1017.5
20260508005945 12 237 0.0 0.0 0.00 0.00 0.00 78 1017.5
20260508005643 12 237 0.0 0.0 0.00 0.00 0.00 78 1017.5
20260508005343 12 236 0.0 0.0 0.00 0.00 0.00 76 1017.5
20260508005043 12 236 0.0 0.0 0.00 0.00 0.00 76 1017.5
20260508004743 13 236 0.0 0.0 0.00 0.00 0.00 76 1017.5
20260508004443 13 236 0.0 0.0 0.00 0.00 0.00 76 1017.4
20260508003543 13 236 0.0 0.0 0.00 0.00 0.00 76 1017.4
20260508003243 13 236 0.0 0.0 0.00 0.00 0.00 76 1017.4
20260508002943 15 236 0.0 0.0 0.00 0.00 0.00 76 1017.3
20260508002643 15 236 0.0 0.0 0.00 0.00 0.00 76 1017.3
20260508002343 15 235 0.0 0.0 0.00 0.00 0.00 74 1017.3
20260508002043 15 235 0.0 0.0 0.00 0.00 0.00 74 1017.3
20260508001743 15 236 0.0 4.8 0.00 0.00 0.00 74 1017.3
20260508001443 15 271 0.0 4.8 0.00 0.00 0.00 74 1017.3
20260508000545 15 272 0.0 4.8 0.00 0.00 0.00 74 1017.2
20260508000243 16 237 0.0 4.8 0.00 0.00 0.00 74 1017.2
20260507235643 16 234 0.0 8.0 0.00 0.00 0.00 74 1016.1
20260507235043 16 266 0.0 6.4 0.00 0.00 0.00 74 1016.1
20260507234743 16 272 0.0 4.8 0.00 0.00 0.00 74 1016.1
20260507234443 16 264 4.8 9.7 0.00 0.00 0.00 74 1016.1
20260507233843 16 252 6.4 9.7 0.00 0.00 0.00 74 1016.1
20260507233543 16 252 6.4 9.7 0.00 0.00 0.00 74 1016.1
20260507233243 16 245 0.0 6.4 0.00 0.00 0.00 74 1016.1
20260507232943 15 274 6.4 11.3 0.00 0.00 0.00 74 1016.2
20260507232644 15 274 6.4 11.3 0.00 0.00 0.00 74 1016.2
20260507232345 16 222 0.0 9.7 0.00 0.00 0.00 74 1016.1
20260507232043 16 222 0.0 9.7 0.00 0.00 0.00 74 1016.1
20260507231743 16 291 0.0 12.9 0.00 0.00 0.00 74 1016.1
20260507231443 16 251 0.0 8.0 0.00 0.00 0.00 74 1016.1
20260507230843 16 247 3.2 8.0 0.00 0.00 0.00 74 1016.1
20260507230543 16 247 3.2 8.0 0.00 0.00 0.00 74 1016.1
20260507230243 16 287 6.4 11.3 0.00 0.00 0.00 74 1016.1
20260507225943 17 271 4.8 9.7 0.00 0.00 0.00 74 1016.1
20260507225643 17 271 4.8 9.7 0.00 0.00 0.00 74 1016.1
20260507225343 17 267 3.2 8.0 0.00 0.00 0.00 71 1016.0
20260507225043 17 267 3.2 8.0 0.00 0.00 0.00 71 1016.0
20260507224743 18 317 4.8 8.0 0.00 0.00 0.00 71 1017.0
20260507224443 18 333 6.4 9.7 0.00 0.00 0.00 71 1017.0
20260507223543 18 312 3.2 9.7 0.00 0.00 0.00 71 1017.0
20260507223243 18 275 0.0 8.0 0.00 0.00 0.00 71 1017.0
20260507222943 18 238 3.2 9.7 0.00 0.00 0.00 71 1017.0
20260507222643 18 238 3.2 9.7 0.00 0.00 0.00 71 1017.0
20260507222343 18 295 3.2 6.4 0.00 0.00 0.00 71 1017.0
20260507222043 18 295 3.2 6.4 0.00 0.00 0.00 71 1017.0
20260507221743 18 272 0.0 3.2 0.00 0.00 0.00 71 1017.0
20260507220243 18 302 8.0 9.7 0.00 0.00 0.00 71 1017.0
20260507215943 18 313 0.0 0.0 0.00 0.00 0.00 71 1015.9
20260507215643 18 313 0.0 0.0 0.00 0.00 0.00 71 1015.9
20260507215343 18 295 0.0 0.0 0.00 0.00 0.00 71 1015.9
20260507215043 18 295 0.0 0.0 0.00 0.00 0.00 71 1015.9
20260507214743 18 286 0.0 0.0 0.00 0.00 0.00 71 1015.9
20260507214443 18 276 0.0 0.0 0.00 0.00 0.00 71 1015.9
20260507214145 18 276 0.0 0.0 0.00 0.00 0.00 71 1015.9
20260507213543 18 301 0.0 0.0 0.00 0.00 0.00 71 1016.0
20260507213243 18 268 0.0 0.0 0.00 0.00 0.00 71 1016.0
20260507212943 18 340 0.0 0.0 0.00 0.00 0.00 71 1016.0
20260507212645 18 340 0.0 0.0 0.00 0.00 0.00 71 1016.0
20260507212343 18 349 0.0 0.0 0.00 0.00 0.00 71 1015.9
20260507211743 18 243 0.0 0.0 0.00 0.00 0.00 71 1015.9
20260507211443 18 312 0.0 0.0 0.00 0.00 0.00 71 1017.0
20260507210543 18 298 0.0 0.0 0.00 0.00 0.00 71 1017.0
20260507210243 18 271 0.0 0.0 0.00 0.00 0.00 71 1017.0
20260507205943 18 268 0.0 0.0 0.00 0.00 0.00 71 1017.0
20260507205343 18 302 0.0 0.0 0.00 0.00 0.00 71 1017.0
20260507205043 18 302 0.0 0.0 0.00 0.00 0.00 71 1017.0
20260507204443 17 272 0.0 0.0 0.00 0.00 0.00 71 1017.1
20260507204144 17 272 0.0 0.0 0.00 0.00 0.00 71 1017.1
20260507203243 18 260 0.0 0.0 0.00 0.00 0.00 71 1017.0
20260507202943 18 308 0.0 0.0 0.00 0.00 0.00 71 1017.0
20260507202643 18 308 0.0 0.0 0.00 0.00 0.00 71 1017.0
20260507202343 18 288 0.0 0.0 0.00 0.00 0.00 71 1017.0
20260507202043 18 288 0.0 0.0 0.00 0.00 0.00 71 1017.0
20260507201743 18 329 0.0 0.0 0.00 0.00 0.00 71 1017.0
20260507201143 18 44 0.0 0.0 0.00 0.00 0.00 71 1017.0
20260507200843 18 357 0.0 0.0 0.00 0.00 0.00 71 1017.0
20260507200543 18 357 0.0 0.0 0.00 0.00 0.00 71 1017.0
20260507200243 18 287 0.0 0.0 0.00 0.00 0.00 71 1017.0
20260507195943 18 3 0.0 0.0 0.00 0.00 0.00 71 1017.0
20260507195643 18 3 0.0 0.0 0.00 0.00 0.00 71 1017.0
20260507195343 18 303 0.0 0.0 0.00 0.00 0.00 71 1017.0
20260507195043 18 303 0.0 0.0 0.00 0.00 0.00 71 1017.0
20260507194743 18 20 0.0 0.0 0.00 0.00 0.00 71 1017.0
20260507194443 18 316 0.0 0.0 0.00 0.00 0.00 71 1017.0
20260507193843 18 357 0.0 0.0 0.00 0.00 0.00 71 1017.0
20260507193543 18 357 0.0 0.0 0.00 0.00 0.00 71 1017.0
20260507193243 18 311 0.0 0.0 0.00 0.00 0.00 71 1017.0
20260507192943 18 259 0.0 0.0 0.00 0.00 0.00 71 1017.0
20260507192643 18 259 0.0 0.0 0.00 0.00 0.00 71 1017.0
20260507192343 18 314 0.0 0.0 0.00 0.00 0.00 71 1017.0
20260507192043 18 314 0.0 0.0 0.00 0.00 0.00 71 1017.0
20260507191743 18 325 0.0 0.0 0.00 0.00 0.00 71 1017.0
20260507191443 18 353 0.0 0.0 0.00 0.00 0.00 71 1017.0
20260507191143 18 353 0.0 0.0 0.00 0.00 0.00 71 1017.0
20260507190543 17 303 0.0 0.0 0.00 0.00 0.00 71 1017.0
20260507190243 17 323 0.0 0.0 0.00 0.00 0.00 71 1017.1
20260507185643 17 29 0.0 0.0 0.00 0.00 0.00 71 1017.1
20260507185343 17 293 0.0 0.0 0.00 0.00 0.00 71 1017.0
20260507184743 17 275 0.0 0.0 0.00 0.00 0.00 71 1017.1
20260507184443 17 291 0.0 0.0 0.00 0.00 0.00 71 1017.1
20260507184143 17 291 0.0 0.0 0.00 0.00 0.00 71 1017.1
20260507183543 17 294 0.0 0.0 0.00 0.00 0.00 74 1017.1
20260507183243 17 3 0.0 0.0 0.00 0.00 0.00 74 1017.1
20260507182943 17 357 0.0 0.0 0.00 0.00 0.00 74 1017.1
20260507182643 17 357 0.0 0.0 0.00 0.00 0.00 74 1017.1
20260507182343 17 357 0.0 0.0 0.00 0.00 0.00 74 1017.1
20260507181743 17 349 0.0 0.0 0.00 0.00 0.00 74 1018.1
20260507181444 17 353 0.0 0.0 0.00 0.00 0.00 74 1018.1
20260507181143 17 353 0.0 0.0 0.00 0.00 0.00 74 1018.1
20260507180543 17 2 0.0 0.0 0.00 0.00 0.00 74 1018.1
20260507180243 16 357 0.0 0.0 0.00 0.00 0.00 74 1018.1
20260507175943 16 353 0.0 0.0 0.00 0.00 0.00 74 1018.1
20260507175643 16 353 0.0 0.0 0.00 0.00 0.00 74 1018.1
20260507175044 16 283 0.0 0.0 0.00 0.00 0.00 74 1018.1
20260507174743 16 345 0.0 20.9 0.00 0.00 0.00 74 1018.1
20260507174443 16 348 0.0 14.5 0.00 0.00 0.00 74 1018.1
20260507173543 16 283 0.0 3.2 0.00 0.00 0.00 74 1018.1
20260507173243 17 340 0.0 0.0 0.00 0.00 0.00 74 1018.1
20260507172943 17 357 0.0 0.0 0.00 0.00 0.00 74 1018.1
20260507172043 17 1 0.0 0.0 0.00 0.00 0.00 74 1018.1
20260507171743 16 339 0.0 0.0 0.00 0.00 0.00 74 1018.1
20260507171443 16 333 0.0 0.0 0.00 0.00 0.00 74 1018.2
20260507171145 16 333 0.0 0.0 0.00 0.00 0.00 74 1018.2
20260507170543 16 248 0.0 0.0 0.00 0.00 0.00 74 1018.2
20260507170243 16 333 0.0 0.0 0.00 0.00 0.00 74 1018.2
20260507165943 16 312 0.0 0.0 0.00 0.00 0.00 74 1019.2
20260507165643 16 312 0.0 0.0 0.00 0.00 0.00 74 1019.2
20260507165043 16 48 0.0 0.0 0.00 0.00 0.00 74 1019.2
20260507164743 16 38 0.0 0.0 0.00 0.00 0.00 74 1019.2
20260507164443 16 282 0.0 0.0 0.00 0.00 0.00 74 1019.2
20260507164143 16 282 0.0 0.0 0.00 0.00 0.00 74 1019.2
20260507163243 15 262 0.0 0.0 0.00 0.00 0.00 74 1019.3
20260507162943 15 257 0.0 0.0 0.00 0.00 0.00 74 1019.3
20260507162643 15 257 0.0 0.0 0.00 0.00 0.00 74 1019.3
20260507162343 15 32 0.0 0.0 0.00 0.00 0.00 74 1019.3
20260507162043 15 32 0.0 0.0 0.00 0.00 0.00 74 1019.3
20260507161743 15 357 0.0 0.0 0.00 0.00 0.00 74 1019.3
20260507161443 15 0 0.0 0.0 0.00 0.00 0.00 74 1019.3
20260507160243 15 41 0.0 0.0 0.00 0.00 0.00 74 1019.3
20260507155943 15 57 0.0 0.0 0.00 0.00 0.00 74 1019.3
20260507155643 15 57 0.0 0.0 0.00 0.00 0.00 74 1019.3
20260507155343 15 32 0.0 11.3 0.00 0.00 0.00 74 1019.3
20260507154443 15 16 0.0 0.0 0.00 0.00 0.00 74 1019.3
20260507154143 15 16 0.0 0.0 0.00 0.00 0.00 74 1019.3
20260507153843 15 357 0.0 0.0 0.00 0.00 0.00 74 1019.3
20260507153543 15 357 0.0 0.0 0.00 0.00 0.00 74 1019.3
20260507153243 15 4 0.0 0.0 0.00 0.00 0.00 74 1019.3
20260507152943 15 345 0.0 0.0 0.00 0.00 0.00 74 1019.3
20260507152643 15 345 0.0 0.0 0.00 0.00 0.00 74 1019.3
20260507152343 15 3 0.0 0.0 0.00 0.00 0.00 74 1019.3
20260507152043 15 3 0.0 0.0 0.00 0.00 0.00 74 1019.3
20260507151743 15 353 0.0 0.0 0.00 0.00 0.00 74 1019.3
20260507151443 15 13 0.0 0.0 0.00 0.00 0.00 74 1019.3
20260507150543 15 357 0.0 0.0 0.00 0.00 0.00 74 1019.3
20260507145943 15 357 0.0 0.0 0.00 0.00 0.00 74 1019.3
20260507145643 15 357 0.0 0.0 0.00 0.00 0.00 74 1019.3
20260507145343 15 357 0.0 0.0 0.00 0.00 0.00 74 1019.3
20260507144743 15 32 0.0 0.0 0.00 0.00 0.00 74 1019.4
20260507144443 15 0 0.0 0.0 0.00 0.00 0.00 74 1019.3
20260507144143 15 0 0.0 0.0 0.00 0.00 0.00 74 1019.3
20260507143843 15 349 0.0 0.0 0.00 0.00 0.00 74 1019.4
20260507143545 15 349 0.0 0.0 0.00 0.00 0.00 74 1019.4
20260507143243 15 0 0.0 0.0 0.00 0.00 0.00 74 1019.4
20260507142943 15 298 0.0 0.0 0.00 0.00 0.00 74 1019.4
20260507142343 15 6 0.0 0.0 0.00 0.00 0.00 74 1019.4
20260507142043 15 6 0.0 0.0 0.00 0.00 0.00 74 1019.4
20260507141743 15 75 0.0 0.0 0.00 0.00 0.00 76 1019.4
20260507140543 13 332 0.0 0.0 0.00 0.00 0.00 76 1019.4
20260507140243 13 301 0.0 0.0 0.00 0.00 0.00 76 1019.4
20260507135344 13 3 0.0 0.0 0.00 0.00 0.00 76 1019.5
20260507135043 13 3 0.0 0.0 0.00 0.00 0.00 76 1019.5
20260507134443 13 48 0.0 0.0 0.00 0.00 0.00 76 1019.5
20260507134143 13 48 0.0 0.0 0.00 0.00 0.00 76 1019.5
20260507133543 13 325 0.0 0.0 0.00 0.00 0.00 76 1019.5
20260507132943 13 342 0.0 0.0 0.00 0.00 0.00 76 1019.5
20260507132343 12 43 0.0 0.0 0.00 0.00 0.00 78 1019.5
20260507131443 12 52 0.0 0.0 0.00 0.00 0.00 78 1019.6
20260507130843 12 357 0.0 0.0 0.00 0.00 0.00 78 1019.6
20260507124743 11 325 0.0 0.0 0.00 0.00 0.00 80 1019.6
20260507124443 11 323 0.0 0.0 0.00 0.00 0.00 84 1019.7
20260507124143 11 323 0.0 0.0 0.00 0.00 0.00 84 1019.7
20260507123543 10 324 0.0 0.0 0.00 0.00 0.00 91 1019.7
20260507123244 10 323 0.0 0.0 0.00 0.00 0.00 99 1019.8
20260507122943 10 323 0.0 0.0 0.00 0.00 0.00 99 1019.8
20260507122643 10 323 0.0 0.0 0.00 0.00 0.00 99 1019.8
20260507121743 7 323 0.0 0.0 0.00 0.00 0.00 99 1020.0
20260507121443 7 323 0.0 0.0 0.00 0.00 0.00 99 1020.0
20260507121143 7 323 0.0 0.0 0.00 0.00 0.00 99 1020.0
20260507120543 6 323 0.0 0.0 0.00 0.00 0.00 99 1020.1
20260507115943 5 323 0.0 0.0 0.00 0.00 0.00 99 1020.2
20260507115643 5 323 0.0 0.0 0.00 0.00 0.00 99 1020.2
20260507115343 5 323 0.0 0.0 0.00 0.00 0.00 99 1020.3
20260507115043 5 323 0.0 0.0 0.00 0.00 0.00 99 1020.3
20260507114744 5 323 0.0 0.0 0.00 0.00 0.00 99 1020.3
20260507114444 3 323 0.0 0.0 0.00 0.00 0.00 99 1020.4
20260507114144 3 323 0.0 0.0 0.00 0.00 0.00 99 1020.4
20260507113543 3 323 0.0 0.0 0.00 0.00 0.00 99 1020.4
20260507113243 2 323 0.0 0.0 0.00 0.00 0.00 99 1020.5
20260507111444 2 324 0.0 0.0 0.00 0.00 0.00 99 1020.5
20260507111143 2 324 0.0 0.0 0.00 0.00 0.00 99 1020.5
20260507110243 1 324 0.0 0.0 0.00 0.00 0.00 99 1019.5
20260507105643 1 324 0.0 0.0 0.00 0.00 0.00 99 1019.5
20260507105043 1 324 0.0 0.0 0.00 0.00 0.00 99 1019.5
20260507104443 1 324 0.0 0.0 0.00 0.00 0.00 99 1019.5
20260507104143 1 324 0.0 0.0 0.00 0.00 0.00 99 1019.5
20260507102943 2 324 0.0 0.0 0.00 0.00 0.00 99 1019.5
20260507102643 2 324 0.0 0.0 0.00 0.00 0.00 99 1019.5
20260507101743 2 324 0.0 0.0 0.00 0.00 0.00 99 1019.5
20260507101443 2 322 0.0 0.0 0.00 0.00 0.00 99 1019.5
20260507100543 2 322 0.0 0.0 0.00 0.00 0.00 99 1019.5
20260507095643 2 322 0.0 0.0 0.00 0.00 0.00 99 1019.4
20260507095343 3 322 0.0 0.0 0.00 0.00 0.00 99 1019.4
20260507095044 3 322 0.0 0.0 0.00 0.00 0.00 99 1019.4
20260507094743 3 322 0.0 0.0 0.00 0.00 0.00 99 1019.4
20260507094144 3 322 0.0 0.0 0.00 0.00 0.00 97 1019.4
20260507093243 3 322 0.0 0.0 0.00 0.00 0.00 95 1019.4
20260507092943 3 324 0.0 0.0 0.00 0.00 0.00 95 1019.3
20260507092643 3 324 0.0 0.0 0.00 0.00 0.00 95 1019.3
20260507091743 5 322 0.0 0.0 0.00 0.00 0.00 95 1019.3
20260507091143 5 322 0.0 0.0 0.00 0.00 0.00 95 1019.3
20260507085943 5 322 0.0 0.0 0.00 0.00 0.00 93 1019.2
20260507085643 5 322 0.0 0.0 0.00 0.00 0.00 93 1019.2
20260507085043 5 322 0.0 0.0 0.00 0.00 0.00 93 1019.2
20260507084743 5 322 0.0 0.0 0.00 0.00 0.00 93 1019.2
20260507084443 5 322 0.0 0.0 0.00 0.00 0.00 93 1019.2
20260507082944 5 323 0.0 0.0 0.00 0.00 0.00 93 1019.2
20260507082343 5 323 0.0 0.0 0.00 0.00 0.00 93 1019.2
20260507081143 5 324 0.0 0.0 0.00 0.00 0.00 93 1019.2
20260507080543 5 320 0.0 0.0 0.00 0.00 0.00 93 1019.2
20260507080243 5 319 0.0 0.0 0.00 0.00 0.00 93 1019.2
20260507075643 6 353 0.0 0.0 0.00 0.00 0.00 95 1019.1
20260507073543 6 346 0.0 0.0 0.00 0.00 0.00 97 1019.1
20260507072943 6 342 0.0 0.0 0.00 0.00 0.00 99 1019.1
20260507072643 6 342 0.0 0.0 0.00 0.00 0.00 99 1019.1
20260507072043 6 75 0.0 0.0 0.00 0.00 0.00 99 1019.1
20260507070544 5 353 0.0 0.0 0.00 0.00 0.00 97 1019.2
20260507065345 5 346 0.0 0.0 0.00 0.00 0.00 95 1019.2
20260507065043 5 346 0.0 0.0 0.00 0.00 0.00 95 1019.2
20260507062344 6 348 0.0 0.0 0.00 0.00 0.00 93 1019.0
20260507060543 7 348 0.0 0.0 0.00 0.00 0.00 93 1019.0
20260507055943 7 348 0.0 0.0 0.00 0.00 0.10 95 1019.0
20260507055343 7 348 0.0 0.0 0.00 0.00 0.10 95 1019.0
20260507055043 7 348 0.0 0.0 0.00 0.00 0.10 95 1019.0
20260507054444 7 322 0.0 0.0 0.00 0.00 0.10 99 1019.0
20260507053543 7 321 0.0 0.0 0.00 0.00 0.10 99 1019.0
20260507053244 7 321 0.0 0.0 0.00 0.00 0.10 99 1019.0
20260507052943 7 321 0.0 0.0 0.00 0.00 0.20 99 1019.0
20260507052043 7 322 0.0 0.0 0.00 0.00 0.20 99 1019.0
20260507051443 6 322 0.0 0.0 0.00 0.00 0.28 99 1019.0
20260507051143 6 322 0.0 0.0 0.00 0.00 0.28 99 1019.0
20260507050543 6 319 0.0 0.0 0.00 0.00 0.28 99 1019.0
20260507050243 6 321 0.0 0.0 0.00 0.00 0.28 99 1019.1
20260507045943 6 319 0.0 0.0 0.00 0.00 0.28 99 1019.1
20260507045644 6 319 0.0 0.0 0.00 0.00 0.28 99 1019.1
20260507045343 6 322 0.0 0.0 0.00 0.00 0.28 99 1019.1
20260507044744 6 320 0.0 0.0 0.00 0.00 0.28 99 1019.1
20260507043543 5 321 0.0 0.0 0.00 0.00 0.41 99 1019.2
20260507043244 5 321 0.0 0.0 0.00 0.00 0.41 99 1019.2
20260507042943 6 321 0.0 0.0 0.00 0.00 0.41 99 1019.1
20260507042643 6 321 0.0 0.0 0.00 0.00 0.41 99 1019.1
20260507042343 6 321 0.0 0.0 0.00 0.00 0.51 99 1019.1
20260507042045 6 321 0.0 0.0 0.00 0.00 0.51 99 1019.1
20260507041743 6 321 0.0 0.0 0.00 0.00 0.51 99 1019.1
20260507041443 6 321 0.0 0.0 0.00 0.00 0.51 99 1019.1
20260507035943 6 321 0.0 0.0 0.00 0.00 0.58 95 1019.1
20260507035643 6 321 0.0 0.0 0.00 0.00 0.58 95 1019.1
20260507035343 6 321 0.0 0.0 0.00 0.00 0.58 95 1019.1
20260507035045 6 321 0.0 0.0 0.00 0.00 0.58 95 1019.1
20260507034443 6 321 0.0 0.0 0.00 0.00 0.58 95 1019.0
20260507033545 6 321 0.0 0.0 0.00 0.00 0.71 93 1019.0
20260507032943 6 321 0.0 0.0 0.00 0.00 0.76 91 1019.0
20260507032643 6 321 0.0 0.0 0.00 0.00 0.76 91 1019.0
20260507032344 7 321 0.0 0.0 0.00 0.00 0.86 91 1019.0
20260507032043 7 321 0.0 0.0 0.00 0.00 0.86 91 1019.0
20260507031743 7 321 0.0 0.0 0.00 0.00 0.99 91 1019.0
20260507031143 7 321 0.0 0.0 0.00 0.00 0.99 91 1019.0
20260507030543 7 321 0.0 0.0 0.00 0.00 0.99 88 1019.0
20260507030243 7 321 0.0 0.0 0.00 0.00 0.99 88 1019.0
20260507025943 7 321 0.0 0.0 0.00 0.00 1.07 88 1019.0
20260507025643 7 321 0.0 0.0 0.00 0.00 1.07 88 1019.0
20260507025343 7 321 0.0 0.0 0.00 0.00 1.07 86 1019.0
20260507025043 7 321 0.0 0.0 0.00 0.00 1.07 86 1019.0
20260507024443 7 321 0.0 0.0 0.00 0.00 1.07 84 1019.0
20260507024355 7 321 0.0 0.0 0.00 0.00 1.17 84 1017.9
20260507023543 7 321 0.0 0.0 0.00 0.00 1.07 84 1018.9
20260507023243 7 321 0.0 0.0 0.00 0.00 1.07 84 1018.9
20260507022943 7 321 0.0 0.0 0.00 0.00 1.17 84 1017.9
20260507022643 7 321 0.0 0.0 0.00 0.00 1.17 84 1017.9
20260507021743 8 321 0.0 0.0 0.00 0.00 1.17 82 1017.9
20260507021443 8 321 0.0 0.0 0.00 0.00 1.17 82 1017.9
20260507020843 8 321 0.0 0.0 0.00 0.00 1.17 82 1017.9
20260507020543 8 321 0.0 0.0 0.00 0.00 1.17 82 1017.9
20260507020243 8 321 0.0 0.0 0.00 0.00 1.17 82 1017.8
20260507015943 10 321 0.0 0.0 0.00 0.00 1.17 80 1017.8
20260507015643 10 321 0.0 0.0 0.00 0.00 1.17 80 1017.8
20260507015343 10 321 0.0 0.0 0.00 0.00 1.17 80 1017.8
20260507015043 10 321 0.0 0.0 0.00 0.00 1.17 80 1017.8